EW7659 Weather Reports


Display with metric or nautical units.
time (UTC)temp
F
wind
direction
speed
MPH
gust
MPH
rain 1hr
in
rain 24hr
in
rain mn
in
humidity
%
barometer
mb
20260504050655 70 186 0.0 3.0 0.00 0.00 0.00 44 1004.6
20260504050153 70 148 0.0 1.0 0.00 0.00 0.00 43 1004.7
20260504045651 70 167 0.0 10.0 0.00 0.00 0.00 43 1004.6
20260504045149 71 167 1.0 10.0 0.00 0.00 0.00 43 1004.7
20260504044648 71 183 1.0 8.0 0.00 0.00 0.00 43 1004.7
20260504044145 71 168 1.0 11.0 0.00 0.00 0.00 42 1004.7
20260504043643 71 151 1.0 11.0 0.00 0.00 0.00 42 1004.7
20260504043143 71 174 0.0 8.0 0.00 0.00 0.00 42 1004.8
20260504042641 71 176 0.0 8.0 0.00 0.00 0.00 43 1004.7
20260504042141 71 149 0.0 5.0 0.00 0.00 0.00 42 1004.8
20260504041640 71 169 0.0 5.0 0.00 0.00 0.00 43 1004.9
20260504041359 71 181 1.0 6.0 0.00 0.00 0.00 43 1004.9
20260504040637 71 194 1.0 8.0 0.00 0.00 0.00 43 1004.9
20260504040136 71 153 0.0 8.0 0.00 0.00 0.00 43 1005.0
20260504035633 71 164 0.0 4.0 0.00 0.00 0.00 43 1005.1
20260504035132 71 180 0.0 4.0 0.00 0.00 0.00 43 1005.1
20260504034633 71 182 0.0 0.0 0.00 0.00 0.00 43 1005.2
20260504034131 71 182 0.0 1.0 0.00 0.00 0.00 43 1005.1
20260504033630 71 184 0.0 2.0 0.00 0.00 0.00 43 1005.1
20260504033130 71 184 0.0 4.0 0.00 0.00 0.00 43 1005.1
20260504032624 71 181 1.0 7.0 0.00 0.00 0.00 43 1005.1
20260504032119 71 175 1.0 7.0 0.00 0.00 0.00 43 1005.0
20260504031614 71 175 0.0 4.0 0.00 0.00 0.00 43 1005.0
20260504031114 71 189 0.0 3.0 0.00 0.00 0.00 43 1005.0
20260504030615 72 182 0.0 1.0 0.00 0.00 0.00 42 1005.0
20260504030115 72 186 0.0 7.0 0.00 0.00 0.00 42 1005.0
20260504025614 72 178 1.0 7.0 0.00 0.00 0.00 42 1005.0
20260504025115 72 169 1.0 6.0 0.00 0.00 0.00 41 1004.9
20260504024615 72 177 0.0 1.0 0.00 0.00 0.00 41 1004.9
20260504024115 72 177 0.0 2.0 0.00 0.00 0.00 41 1004.8
20260504023617 73 178 0.0 2.0 0.00 0.00 0.00 41 1004.9
20260504023330 73 177 0.0 6.0 0.00 0.00 0.00 40 1004.8
20260504022611 73 178 0.0 6.0 0.00 0.00 0.00 40 1004.7
20260504022109 73 167 0.0 4.0 0.00 0.00 0.00 40 1004.7
20260504021608 73 167 0.0 4.0 0.00 0.00 0.00 39 1004.7
20260504021109 74 165 0.0 1.0 0.00 0.00 0.00 39 1004.6
20260504020609 74 164 0.0 5.0 0.00 0.00 0.00 39 1004.6
20260504020108 74 171 0.0 5.0 0.00 0.00 0.00 39 1004.6
20260504015607 74 169 0.0 5.0 0.00 0.00 0.00 39 1004.6
20260504015105 75 165 0.0 5.0 0.00 0.00 0.00 38 1004.6
20260504014604 75 178 0.0 3.0 0.00 0.00 0.00 38 1004.5
20260504014103 75 177 0.0 3.0 0.00 0.00 0.00 37 1004.5
20260504013602 75 175 0.0 1.0 0.00 0.00 0.00 37 1004.5
20260504013547 76 175 0.0 1.0 0.00 0.00 0.00 37 1004.5
20260504012603 76 217 0.0 4.0 0.00 0.00 0.00 36 1004.4
20260504012102 76 164 0.0 4.0 0.00 0.00 0.00 35 1004.4
20260504011602 77 157 0.0 3.0 0.00 0.00 0.00 35 1004.4
20260504011103 77 181 0.0 0.0 0.00 0.00 0.00 34 1004.4
20260504010605 77 181 0.0 0.0 0.00 0.00 0.00 33 1004.4
20260504010106 78 180 0.0 2.0 0.00 0.00 0.00 32 1004.5
20260504005602 78 181 0.0 2.0 0.00 0.00 0.00 31 1004.6
20260504005103 78 178 0.0 1.0 0.00 0.00 0.00 31 1004.6
20260504004833 79 175 0.0 3.0 0.00 0.00 0.00 30 1004.6
20260504004325 79 175 0.0 3.0 0.00 0.00 0.00 29 1004.6
20260504003603 79 174 0.0 3.0 0.00 0.00 0.00 29 1004.6
20260504003103 79 175 0.0 1.0 0.00 0.00 0.00 29 1004.7
20260504002825 80 200 0.0 3.0 0.00 0.00 0.00 29 1004.8
20260504002105 80 153 0.0 3.0 0.00 0.00 0.00 28 1004.7
20260504001829 80 151 0.0 4.0 0.00 0.00 0.00 28 1004.7
20260504001103 81 202 0.0 4.0 0.00 0.00 0.00 27 1004.7
20260504000602 81 167 0.0 3.0 0.00 0.00 0.00 27 1004.7
20260503235823 82 222 1.0 7.0 0.00 0.00 0.00 27 1004.7
20260503235105 82 235 0.0 9.0 0.00 0.00 0.00 26 1004.7
20260503234608 82 165 0.0 9.0 0.00 0.00 0.00 27 1004.6
20260503234105 82 175 0.0 7.0 0.00 0.00 0.00 27 1004.8
20260503233606 83 235 1.0 10.0 0.00 0.00 0.00 25 1004.7
20260503233103 83 197 1.0 10.0 0.00 0.00 0.00 26 1004.7
20260503232605 83 224 1.0 9.0 0.00 0.00 0.00 26 1004.7
20260503232102 83 157 1.0 9.0 0.00 0.00 0.00 26 1004.7
20260503231602 84 190 1.0 8.0 0.00 0.00 0.00 27 1004.7
20260503231102 84 220 1.0 16.0 0.00 0.00 0.00 27 1004.7
20260503230602 84 167 0.0 16.0 0.00 0.00 0.00 27 1004.7
20260503230104 84 168 0.0 7.0 0.00 0.00 0.00 27 1004.8
20260503225602 84 268 1.0 7.0 0.00 0.00 0.00 29 1004.8
20260503225101 85 182 0.0 6.0 0.00 0.00 0.00 27 1004.8
20260503224554 85 242 0.0 6.0 0.00 0.00 0.00 26 1004.9
20260503224057 85 157 0.0 5.0 0.00 0.00 0.00 26 1004.8
20260503223557 85 178 0.0 2.0 0.00 0.00 0.00 28 1004.9
20260503223316 85 243 0.0 6.0 0.00 0.00 0.00 27 1004.9
20260503222553 85 275 0.0 7.0 0.00 0.00 0.00 26 1005.0
20260503222053 85 243 0.0 7.0 0.00 0.00 0.00 25 1005.0
20260503221814 85 157 0.0 9.0 0.00 0.00 0.00 24 1005.0
20260503221050 85 265 0.0 9.0 0.00 0.00 0.00 27 1005.1
20260503220550 85 171 0.0 4.0 0.00 0.00 0.00 25 1005.2
20260503220052 85 180 1.0 9.0 0.00 0.00 0.00 25 1005.3
20260503215549 85 227 1.0 9.0 0.00 0.00 0.00 24 1005.3
20260503215050 85 169 0.0 3.0 0.00 0.00 0.00 26 1005.4
20260503214814 85 166 0.0 8.0 0.00 0.00 0.00 26 1005.5
20260503214050 85 235 1.0 8.0 0.00 0.00 0.00 27 1005.6
20260503213550 85 205 1.0 7.0 0.00 0.00 0.00 26 1005.5
20260503213050 85 163 1.0 7.0 0.00 0.00 0.00 25 1005.6
20260503212550 85 172 0.0 10.0 0.00 0.00 0.00 26 1005.6
20260503212309 85 132 0.0 10.0 0.00 0.00 0.00 27 1005.8
20260503211551 84 160 1.0 9.0 0.00 0.00 0.00 30 1005.9
20260503211051 84 146 1.0 8.0 0.00 0.00 0.00 27 1005.9
20260503210550 84 177 1.0 8.0 0.00 0.00 0.00 28 1006.1
20260503210050 84 219 1.0 8.0 0.00 0.00 0.00 30 1006.3
20260503205551 84 121 1.0 8.0 0.00 0.00 0.00 30 1006.3
20260503205051 84 265 0.0 4.0 0.00 0.00 0.00 28 1006.3
20260503204548 84 201 0.0 3.0 0.00 0.00 0.00 28 1006.5
20260503204321 84 240 0.0 7.0 0.00 0.00 0.00 29 1006.5
20260503203548 84 196 0.0 7.0 0.00 0.00 0.00 30 1006.6
20260503203049 84 189 1.0 10.0 0.00 0.00 0.00 31 1006.8
20260503202548 84 19 1.0 10.0 0.00 0.00 0.00 35 1006.8
20260503202048 84 186 1.0 7.0 0.00 0.00 0.00 31 1007.0
20260503201546 83 261 1.0 13.0 0.00 0.00 0.00 31 1007.2
20260503201046 83 175 0.0 13.0 0.00 0.00 0.00 35 1007.2
20260503200547 83 167 0.0 7.0 0.00 0.00 0.00 33 1007.3
20260503200313 83 159 0.0 4.0 0.00 0.00 0.00 33 1007.4
20260503195546 83 208 1.0 10.0 0.00 0.00 0.00 32 1007.6
20260503195532 83 166 1.0 10.0 0.00 0.00 0.00 32 1007.6
20260503194542 83 215 0.0 7.0 0.00 0.00 0.00 36 1007.7
20260503194042 83 190 1.0 10.0 0.00 0.00 0.00 34 1007.7
20260503193803 82 225 1.0 10.0 0.00 0.00 0.00 34 1007.8
20260503193306 82 170 0.0 10.0 0.00 0.00 0.00 38 1007.9
20260503192542 82 140 1.0 10.0 0.00 0.00 0.00 36 1008.0
20260503192042 81 144 1.0 9.0 0.00 0.00 0.00 40 1008.0
20260503192029 82 157 0.0 9.0 0.00 0.00 0.00 40 1008.0
20260503191302 81 217 0.0 7.0 0.00 0.00 0.00 40 1008.2
20260503190542 81 150 0.0 8.0 0.00 0.00 0.00 39 1008.3
20260503190300 81 169 0.0 8.0 0.00 0.00 0.00 40 1008.3
20260503185537 81 159 0.0 8.0 0.00 0.00 0.00 41 1008.4
20260503185037 80 247 0.0 8.0 0.00 0.00 0.00 39 1008.3
20260503184538 80 182 0.0 9.0 0.00 0.00 0.00 42 1008.4
20260503184038 80 252 1.0 12.0 0.00 0.00 0.00 42 1008.4
20260503183538 80 164 1.0 12.0 0.00 0.00 0.00 41 1008.5
20260503183303 80 169 1.0 10.0 0.00 0.00 0.00 40 1008.6
20260503182538 79 182 1.0 10.0 0.00 0.00 0.00 39 1008.6
20260503182038 79 184 0.0 3.0 0.00 0.00 0.00 45 1008.9
20260503181758 79 226 0.0 3.0 0.00 0.00 0.00 42 1008.9
20260503181033 79 202 0.0 7.0 0.00 0.00 0.00 42 1009.0
20260503180534 79 236 0.0 7.0 0.00 0.00 0.00 47 1009.1
20260503180033 78 138 0.0 6.0 0.00 0.00 0.00 44 1009.3
20260503175532 78 206 0.0 6.0 0.00 0.00 0.00 44 1009.4
20260503175032 78 173 0.0 6.0 0.00 0.00 0.00 43 1009.5
20260503174533 78 158 0.0 6.0 0.00 0.00 0.00 46 1009.5
20260503174031 78 188 0.0 2.0 0.00 0.00 0.00 47 1009.6
20260503173532 78 206 0.0 2.0 0.00 0.00 0.00 44 1009.7
20260503173031 77 206 0.0 2.0 0.00 0.00 0.00 44 1009.8
20260503172757 77 167 0.0 0.0 0.00 0.00 0.00 48 1010.0
20260503172030 77 190 0.0 2.0 0.00 0.00 0.00 45 1010.0
20260503171530 76 192 1.0 6.0 0.00 0.00 0.00 46 1010.1
20260503171029 76 174 0.0 6.0 0.00 0.00 0.00 48 1010.1
20260503170530 75 166 0.0 1.0 0.00 0.00 0.00 49 1010.2
20260503150951 66 189 1.0 6.0 0.00 0.00 0.00 55 1011.0
20260503150451 65 194 1.0 7.0 0.00 0.00 0.00 57 1011.0
20260503130915 52 165 2.0 8.0 0.00 0.00 0.00 72 1011.8
20260503130633 51 168 1.0 6.0 0.00 0.00 0.00 73 1011.7
20260503130143 51 167 0.0 6.0 0.00 0.00 0.00 73 1011.8
20260503110339 49 173 1.0 7.0 0.00 0.00 0.00 72 1011.6
20260503090253 50 0 0.0 3.0 0.00 0.00 0.00 71 1012.6
20260503081241 51 0 0.0 1.0 0.00 0.00 0.00 69 1013.1
20260503080742 51 0 0.0 1.0 0.00 0.00 0.00 69 1013.2
20260503080242 51 0 0.0 0.0 0.00 0.00 0.00 69 1013.2
20260503072739 51 355 0.0 0.0 0.00 0.01 0.00 69 1013.5
20260503072237 51 355 0.0 0.0 0.00 0.01 0.00 71 1013.5
20260503071737 51 355 0.0 0.0 0.00 0.01 0.00 72 1013.6
20260503071238 50 355 0.0 0.0 0.00 0.01 0.00 73 1013.5
20260503070733 50 355 0.0 0.0 0.00 0.01 0.00 75 1013.6
20260503070458 50 355 0.0 0.0 0.00 0.01 0.00 75 1013.7
20260503060230 47 355 0.0 0.0 0.00 0.01 0.00 80 1014.2
20260503054731 48 355 0.0 0.0 0.00 0.01 0.00 78 1014.2
20260503054230 48 355 0.0 0.0 0.00 0.01 0.00 77 1014.1
20260503053730 48 355 0.0 0.0 0.00 0.01 0.00 77 1014.1
20260503053231 48 355 0.0 0.0 0.00 0.01 0.00 76 1014.0
20260503052730 49 355 0.0 0.0 0.00 0.01 0.00 76 1014.1
20260503052231 49 355 0.0 0.0 0.00 0.01 0.00 76 1014.1
20260503051730 49 355 0.0 0.0 0.00 0.01 0.00 75 1014.0